Date,TemperatureHighF,TemperatureAvgF,TemperatureLowF,DewpointHighF,DewpointAvgF,DewpointLowF,HumidityHigh,HumidityAvg,HumidityLow,PressureMaxIn,PressureMinIn,WindSpeedMaxMPH,WindSpeedAvgMPH,GustSpeedMaxMPH,PrecipitationSumIn
2013-1-1,33,23,12,27,-4,-100,81,52,43,29.80,29.58,15,7,0,0.00
2013-1-2,18,10,4,2,-6,-100,72,54,42,29.99,29.80,15,8,0,0.00
2013-1-3,19,7,3,5,-46,-100,68,31,48,30.06,29.94,11,2,0,0.00
2013-1-4,35,27,12,26,-1,-100,75,56,64,29.94,29.72,8,5,0,0.00
2013-1-5,35,27,12,26,6,-100,73,53,35,30.16,29.70,19,5,0,0.00
2013-1-6,35,25,13,33,21,4,94,85,67,30.10,29.75,9,1,0,0.00
2013-1-7,26,17,9,23,10,2,90,75,54,30.27,29.80,6,2,0,0.00
2013-1-8,42,36,20,34,27,17,89,72,62,30.22,30.01,16,7,0,0.00
2013-1-9,43,36,24,39,30,20,90,80,63,30.25,29.69,11,3,0,0.00
2013-1-10,43,38,29,28,24,19,67,57,47,30.34,29.89,17,9,0,0.00
2013-1-11,29,27,24,20,18,16,71,69,67,30.36,30.28,8,2,0,0.00
2013-1-13,47,44,42,46,43,41,98,97,97,30.15,29.96,9,3,0,0.00
2013-1-14,49,45,37,49,42,25,99,89,62,30.17,29.86,13,6,0,0.00
2013-1-15,37,33,28,26,22,18,81,65,51,30.31,30.16,4,0,0,0.00
2013-1-16,38,34,29,36,28,15,96,81,50,30.29,29.75,11,4,0,0.00
2013-1-17,39,25,14,37,9,-10,92,51,28,30.12,29.75,10,7,0,0.00
2013-1-18,19,12,6,1,-5,-13,59,45,31,30.38,30.09,11,4,0,0.00
2013-1-19,35,32,19,33,28,0,97,89,42,30.37,29.92,13,4,0,0.00
2013-1-20,42,35,26,34,21,7,96,58,38,29.92,29.53,15,8,0,0.00
2013-1-21,25,20,14,14,2,-5,81,47,29,30.02,29.77,14,4,0,0.00
2013-1-22,19,13,5,15,3,-10,84,65,39,29.94,29.75,12,4,0,0.00
2013-1-23,10,4,1,-10,-14,-18,48,40,34,30.03,29.94,15,10,0,0.00
2013-1-25,6,6,6,-4,-4,-4,62,62,62,30.09,30.09,11,11,0,0.00